TimeCST,TemperatureF,Dew PointF,Humidity,Sea Level PressureIn,VisibilityMPH,Wind Direction,Wind SpeedMPH,Gust SpeedMPH,PrecipitationIn,Events,Conditions,WindDirDegrees,DateUTC
12:39 AM,19.4,14.0,80,30.28,10.0,North,20.7,-,N/A,,Overcast,360,2013-01-03 06:39:00
12:53 AM,19.0,14.0,81,30.35,10.0,North,13.8,-,N/A,,Overcast,360,2013-01-03 06:53:00
1:25 AM,17.6,12.2,79,30.30,10.0,North,18.4,-,N/A,,Overcast,10,2013-01-03 07:25:00
1:53 AM,17.1,10.9,77,30.36,10.0,North,10.4,-,N/A,,Overcast,360,2013-01-03 07:53:00
2:53 AM,17.1,12.0,81,30.38,10.0,NW,13.8,-,N/A,,Overcast,320,2013-01-03 08:53:00
3:02 AM,15.8,10.4,79,30.32,10.0,NW,15.0,-,N/A,,Mostly Cloudy,320,2013-01-03 09:02:00
3:20 AM,15.8,8.6,73,30.33,10.0,NW,16.1,-,N/A,,Partly Cloudy,320,2013-01-03 09:20:00
3:53 AM,12.0,6.1,77,30.39,10.0,NW,11.5,-,N/A,,Clear,320,2013-01-03 09:53:00
4:51 AM,12.2,5.0,73,30.33,10.0,NNW,11.5,-,N/A,,Mostly Cloudy,340,2013-01-03 10:51:00
4:53 AM,12.0,6.1,77,30.40,10.0,NNW,10.4,-,N/A,,Mostly Cloudy,340,2013-01-03 10:53:00
5:53 AM,12.9,7.0,77,30.42,10.0,NW,9.2,-,N/A,,Overcast,320,2013-01-03 11:53:00
6:53 AM,14.0,8.1,77,30.41,10.0,NW,5.8,-,N/A,,Overcast,320,2013-01-03 12:53:00
7:53 AM,14.0,9.0,80,30.41,10.0,SW,3.5,-,N/A,,Overcast,230,2013-01-03 13:53:00
8:53 AM,15.1,9.0,77,30.41,10.0,SW,5.8,-,N/A,,Overcast,230,2013-01-03 14:53:00
9:46 AM,15.8,10.4,79,30.34,10.0,SSW,8.1,-,N/A,,Overcast,210,2013-01-03 15:46:00
9:53 AM,17.1,10.9,77,30.41,10.0,SSW,6.9,-,N/A,,Overcast,210,2013-01-03 15:53:00
10:43 AM,19.4,12.2,74,30.36,10.0,SSW,5.8,-,N/A,,Overcast,200,2013-01-03 16:43:00
10:53 AM,19.0,12.9,77,30.43,10.0,SSW,5.8,-,N/A,,Overcast,210,2013-01-03 16:53:00
11:53 AM,21.0,15.1,78,30.39,10.0,SSW,9.2,-,N/A,,Overcast,210,2013-01-03 17:53:00
12:13 PM,21.2,17.6,86,30.31,10.0,SSW,5.8,-,N/A,,Scattered Clouds,210,2013-01-03 18:13:00
12:31 PM,24.8,17.6,74,30.30,10.0,SW,9.2,-,N/A,,Mostly Cloudy,220,2013-01-03 18:31:00
12:53 PM,24.1,18.0,77,30.36,10.0,WSW,10.4,-,N/A,,Mostly Cloudy,240,2013-01-03 18:53:00
1:08 PM,24.8,17.6,74,30.28,10.0,West,11.5,-,N/A,,Partly Cloudy,260,2013-01-03 19:08:00
1:53 PM,24.1,16.0,71,30.34,10.0,WSW,8.1,-,N/A,,Mostly Cloudy,240,2013-01-03 19:53:00
2:53 PM,25.0,16.0,69,30.33,10.0,West,6.9,-,N/A,,Clear,260,2013-01-03 20:53:00
3:53 PM,24.1,16.0,71,30.35,10.0,WSW,4.6,-,N/A,,Clear,240,2013-01-03 21:53:00
4:53 PM,21.9,15.1,75,30.34,10.0,SSW,6.9,-,N/A,,Clear,210,2013-01-03 22:53:00
5:53 PM,21.0,14.0,74,30.32,10.0,SSW,8.1,-,N/A,,Clear,210,2013-01-03 23:53:00
6:53 PM,19.9,12.9,74,30.32,10.0,SSW,8.1,-,N/A,,Clear,200,2013-01-04 00:53:00
7:53 PM,18.0,12.0,78,30.30,10.0,SSW,9.2,-,N/A,,Clear,210,2013-01-04 01:53:00
8:53 PM,16.0,10.9,81,30.28,10.0,SSW,8.1,-,N/A,,Clear,210,2013-01-04 02:53:00
9:53 PM,16.0,10.9,81,30.26,10.0,SSW,9.2,-,N/A,,Clear,210,2013-01-04 03:53:00
10:53 PM,19.9,12.0,71,30.24,10.0,SW,10.4,-,N/A,,Clear,220,2013-01-04 04:53:00
11:53 PM,18.0,10.9,74,30.23,10.0,SW,9.2,-,N/A,,Clear,220,2013-01-04 05:53:00